Regional Weather Roundup
Issued by NWS Sterling, VA

Home | Current Version | Previous Version | Text Only | Print | Product List | Glossary Off
Versions: 1 2 3 4 5 6 7 8 9 10 11 12 13 14 15 16 17 18 19 20 21 22 23 24 25 26 27

000
ASUS41 KLWX 290510
RWRLWX

REGIONAL WEATHER ROUNDUP
NATIONAL WEATHER SERVICE BALTIMORE MD/WASHINGTON DC
100 AM EDT FRI APR 29 2016

Note: "FAIR" indicates few or no clouds below 12,000 feet
with no significant weather and/or obstructions to visibility.
 TC=TEMPERATURE CELSIUS

 * =Non NWS site. Station does not report precipitation (e.g. rain,
    snow, etc.), thunder, or fog.

DCZ001-MDZ009-015-VAZ040>042-051-053>054-290600-
WASHINGTON METRO

CITY           SKY/WX    TMP DP  RH WIND       PRES   REMARKS
WASHINGTON NAT CLOUDY    48  45  89 NE9       30.01F
DULLES         CLOUDY    47  44  90 NE6       30.02S
ANDREWS AFB    CLOUDY    46  44  94 NE7       30.00S
FT BELVOIR     CLOUDY    48  45  87 N6        30.02R
QUANTICO       CLOUDY    50  48  93 E9        30.02S FOG
COLLEGE PARK*  CLOUDY    45  43  93 CALM      30.02S
LEESBURG*      CLOUDY    46  46 100 CALM      30.03R
MANASSAS*      CLOUDY    48  46  93 NE7       30.02R
GAITHERSBURG*  CLOUDY    45  39  81 CALM      30.06R

$$

MDZ006>007-011-014-290600-
BALTIMORE METRO

CITY           SKY/WX    TMP DP  RH WIND       PRES   REMARKS
BWI AIRPORT    CLOUDY    47  44  90 NE7       30.02S
MD SCIENCE CTR   N/A     48  41  76 MISG      30.02F
MARTIN STATE   CLOUDY    48  45  87 CALM      30.04S
ANNAPOLIS      CLOUDY    48  45  89 MISG      30.01S
FORT MEADE*    CLOUDY    45  43  93 NE3       30.04F

$$

MDZ012-015-019>023-290600-
MARYLAND EASTERN SHORE

CITY           SKY/WX    TMP DP  RH WIND       PRES   REMARKS
OCEAN CITY     CLOUDY    50  48  93 NE10G21   29.97F
SALISBURY      CLOUDY    49  48  97 NE9       29.99R
CAMBRIDGE*     CLOUDY    46  46 100 CALM      29.99F
EASTON*        CLOUDY   N/A N/A N/A NE5       30.04F

$$

MDZ017>025-290600-
SOUTHERN MARYLAND

CITY           SKY/WX    TMP DP  RH WIND       PRES   REMARKS
PATUXENT RIVER DRIZZLE   50  47  89 NE12      30.00S
ST INIGOES     CLOUDY    51  49  92 VRB3      29.98S
LEONARDTOWN*   CLOUDY    48  46  93 E3        30.00F

$$

MDZ003>005-290600-
NORTH CENTRAL MARYLAND

CITY           SKY/WX    TMP DP  RH WIND       PRES   REMARKS
FREDERICK*     CLOUDY    45  45 100 NE3       30.05S
HAGERSTOWN APT CLOUDY    46  44  93 E3        30.01S FOG
WESTMINSTER*   CLOUDY    45  41  87 E3        30.02S FOG

$$

MDZ501>502-290600-
WESTERN MARYLAND

CITY           SKY/WX    TMP DP  RH WIND       PRES   REMARKS
OAKLAND*       FOG       43  43 100 S8        29.94S VSB 1/4
CUMBERLAND*    CLOUDY    46  46 100 CALM      30.03F

$$

VAZ025>031-290600-
SHENANDOAH VALLEY

CITY           SKY/WX    TMP DP  RH WIND       PRES   REMARKS
WINCHESTER*    CLOUDY    46  46 100 E5        30.00S FOG
FRONT ROYAL*   CLOUDY    46  46 100 N5        29.98F
LURAY*         CLOUDY    46  46 100 NE6       29.98F FOG
NEW MARKET*    CLOUDY    47  47 100 N5        29.98S
STAUNTON*      LGT RAIN  53  53 100 CALM      29.98F
WAYNESBORO*    CLOUDY    51  50  96 MISG      29.97S

$$

WVZ021-048>050-054>055-290600-
EASTERN WEST VIRGINIA PANHANDLE

CITY           SKY/WX    TMP DP  RH WIND       PRES   REMARKS
MARTINSBURG    FOG       46  46 100 CALM      30.00F VSB 1
PETERSBURG*    CLOUDY    50  49  97 NW3       29.99S FOG

$$

VAZ036>039-050-290600-
CENTRAL FOOTHILLS

CITY           SKY/WX    TMP DP  RH WIND       PRES   REMARKS
CHARLOTTESVILL CLOUDY    54  52  93 CALM      29.98R FOG
CULPEPER*      CLOUDY    49  49 100 CALM      30.01F FOG
ORANGE*        CLOUDY    50  50 100 CALM      30.01R FOG
GORDONSVILLE*  CLOUDY    51  51 100 NE5       29.99R FOG
WARRENTON*     CLOUDY    49  45  85 NE6       30.00S FOG

$$

VAZ055>057-290600-
NORTH AND CENTRAL PIEDMONT

CITY           SKY/WX    TMP DP  RH WIND       PRES   REMARKS
FREDERICKSBRG* CLOUDY    50  50 100 NE5       29.99F FOG
STAFFORD*      CLOUDY    48  47  95 NE5       30.04S FOG

$$

NCZ024-NYZ072-PAZ021-071-VAZ022-071-290600-
OTHER REGIONAL OBSERVATIONS

CITY           SKY/WX    TMP DP  RH WIND       PRES   REMARKS
NEW YORK CITY  CLOUDY    49  38  65 CALM      30.08R
PHILADELPHIA   CLOUDY    45  41  86 NE10      30.05F
PITTSBURGH     FOG       47  44  90 N5        29.93F VSB 1
ROANOKE        MOCLDY    58  57  97 SE8       29.97R
RICHMOND       CLOUDY    52  50  93 N6        29.98R
RALEIGH        FOG       66  65  96 NE8       29.91F VSB 1/2

$$

ANZ530>537-290600-
MARINE OBSERVATIONS

STATION/POSITION TIME  TEMP    WIND        PRES
                       AIR SEA DIR/SP/G
                 (UTC) (F)     (DEG/KT/KT) (MB)
THOMAS PT LIGHT  0500   48 58   40/  9/ 11 1017.4F
BALT KEY BRIDGE  0400   48      50/  6/  8 1016.5F
COVE POINT       0400   49      60/  6/  9 1016.5R
LEWISETTA        0400   52 61   70/  8/ 10 1014.9F
SOLOMONS ISLAND  0400   50 60   30/  6/  8   N/A

$$





USA.gov is the U.S. government's official web portal to all federal, state and local government web resources and services.